Franklin, PA

11:01 AM EST on December 06, 2019 (GMT -0500)
Venango Regional

Weather History for KFKL - November, 2019

Change the Weather History Date:

Friday, November 15, 2019

  Actual Average Record
Temperature  
Mean Temperature 28 °F -  
Max Temperature 30 °F 47 °F 68 °F (1930)
Min Temperature 26 °F 29 °F 11 °F (1933)
Degree Days  
Heating Degree Days 37    
Moisture  
Dew Point 25 °F    
Average Humidity 84    
Maximum Humidity 93    
Minimum Humidity 75    
Precipitation  
Precipitation 0.00 in - - ()
Sea Level Pressure  
Sea Level Pressure 30.31 in    
Wind  
Wind Speed 6 mph (West)    
Max Wind Speed 9 mph    
Max Gust Speed -    
Visibility 9 miles    
Events      
Averages and records for this station are not official NWS values.
T = Trace of Precipitation, MM = Missing Value Source: NWS Daily Summary

Daily Weather History Graph

Daily Weather History Graph

Search for Another Location

Airport or City:

Astronomy

Nov. 15, 2019 Rise Set
Actual Time 7:07 AM EST 5:00 PM EST
Civil Twilight 6:37 AM EST 5:29 PM EST
Nautical Twilight 6:04 AM EST 6:03 PM EST
Astronomical Twilight 5:31 AM EST 6:35 PM EST
Moon 7:32 PM EST (11/15) 10:03 AM EST (11/15)
Length of Visible Light 10h 51m
Length of Day
9h 52m
Waning Gibbous, 90% of the Moon is Illuminated
Nov 15
Waning Gibbous
Nov 19
Last Quarter
Nov 26
New
Dec 4
First Quarter
Dec 12
Full

Hourly Weather History & Observations

Time (EST) Temp. Windchill Dew Point Humidity Pressure Visibility Wind Dir Wind Speed Gust Speed Precip Events Conditions
12:56 AM 30.0 °F 23.2 °F 23.0 °F 75% 30.26 in 10.0 mi WSW 6.9 mph - N/A   Clear
1:56 AM 28.9 °F 21.1 °F 23.0 °F 78% 30.26 in 10.0 mi WSW 8.1 mph - N/A   Clear
2:56 AM 28.9 °F 20.4 °F 23.0 °F 78% 30.26 in 10.0 mi West 9.2 mph - N/A   Clear
3:56 AM 27.0 °F 20.5 °F 21.9 °F 81% 30.27 in 10.0 mi West 5.8 mph - N/A   Clear
4:56 AM 27.0 °F 18.0 °F 21.9 °F 81% 30.27 in 10.0 mi West 9.2 mph - N/A   Clear
5:56 AM 26.1 °F 18.4 °F 21.9 °F 84% 30.28 in 10.0 mi West 6.9 mph - N/A   Clear
6:21 AM 26.6 °F 20.0 °F 23.0 °F 86% 30.23 in 10.0 mi WSW 5.8 mph - N/A   Mostly Cloudy
6:40 AM 26.6 °F 19.1 °F 23.0 °F 86% 30.23 in 10.0 mi WSW 6.9 mph - N/A   Overcast
6:56 AM 26.1 °F 20.5 °F 23.0 °F 88% 30.29 in 10.0 mi WSW 4.6 mph - N/A   Overcast
7:12 AM 26.6 °F 21.2 °F 23.0 °F 86% 30.24 in 9.0 mi West 4.6 mph - N/A   Overcast
7:56 AM 26.1 °F 19.4 °F 23.0 °F 88% 30.32 in 10.0 mi Variable 5.8 mph - N/A   Overcast
8:56 AM 27.0 °F 19.5 °F 23.0 °F 85% 30.32 in 9.0 mi WSW 6.9 mph - N/A   Overcast
9:56 AM 28.0 °F 21.7 °F 23.0 °F 81% 30.32 in 9.0 mi WNW 5.8 mph - N/A   Overcast
10:56 AM 28.0 °F 24.2 °F 24.1 °F 85% 30.32 in 10.0 mi West 3.5 mph - N/A   Overcast
11:56 AM 28.9 °F 22.8 °F 24.1 °F 82% 30.31 in 10.0 mi Variable 5.8 mph - N/A   Overcast
12:56 PM 30.0 °F 24.1 °F 25.0 °F 82% 30.30 in 10.0 mi West 5.8 mph - N/A   Overcast
1:56 PM 30.9 °F 25.2 °F 26.1 °F 82% 30.29 in 9.0 mi WSW 5.8 mph - N/A   Overcast
2:56 PM 30.9 °F 25.2 °F 26.1 °F 82% 30.32 in 9.0 mi Variable 5.8 mph - N/A   Overcast
3:56 PM 30.9 °F 25.2 °F 26.1 °F 82% 30.34 in 10.0 mi Variable 5.8 mph - N/A   Overcast
4:08 PM 30.2 °F 24.3 °F 26.6 °F 86% 30.28 in 9.0 mi WNW 5.8 mph - N/A   Overcast
4:56 PM 30.9 °F - 26.1 °F 82% 30.35 in 9.0 mi Calm Calm - N/A   Overcast
5:56 PM 30.0 °F - 26.1 °F 85% 30.35 in 10.0 mi Calm Calm - N/A   Overcast
6:26 PM 30.2 °F 26.7 °F 26.6 °F 86% 30.29 in 9.0 mi NNW 3.5 mph - N/A   Overcast
6:56 PM 30.0 °F 23.2 °F 27.0 °F 88% 30.36 in 6.0 mi Variable 6.9 mph - N/A   Overcast
7:40 PM 30.2 °F 24.3 °F 28.4 °F 93% 30.30 in 6.0 mi Variable 5.8 mph - 0.00 in   Overcast
7:56 PM 30.9 °F 25.2 °F 28.0 °F 89% 30.35 in 7.0 mi Variable 5.8 mph - 0.00 in   Overcast
8:56 PM 30.9 °F 25.2 °F 27.0 °F 85% 30.37 in 10.0 mi Variable 5.8 mph - N/A   Overcast
9:09 PM 30.2 °F 24.3 °F 26.6 °F 86% 30.31 in 10.0 mi NNE 5.8 mph - N/A   Mostly Cloudy
9:56 PM 30.9 °F 26.2 °F 27.0 °F 85% 30.38 in 10.0 mi NNE 4.6 mph - N/A   Overcast
10:23 PM 30.2 °F 26.7 °F 26.6 °F 86% 30.32 in 10.0 mi North 3.5 mph - N/A   Overcast
10:51 PM 30.2 °F - 26.6 °F 86% 30.33 in 10.0 mi Calm Calm - N/A   Overcast
10:56 PM 30.9 °F - 27.0 °F 85% 30.39 in 10.0 mi Calm Calm - N/A   Overcast
11:56 PM 30.9 °F - 27.0 °F 85% 30.38 in 10.0 mi Calm Calm - N/A   Overcast